Location: Napa Soda Springs
(38.3907°N, 122.2794°W)
Time: 21:39:06
(UTC+00:00)

ADEOS Rocket - Pass Details

Date: 29 October 2020
Orbit: 859 x 1306 km, 98.7° (Epoch: 24 November)

Event Time Altitude Azimuth Distance (km) Brightness Sun altitude
Rises 12:42:42 0° 181° (S) 3,448 5.9 -22.1°
Reaches altitude 10° 12:45:10 10° 187° (S) 2,495 5.1 -21.6°
Maximum altitude 12:50:25 48° 261° (W) 1,120 2.9 -20.6°
Drops below altitude 10° 12:55:47 10° 335° (NNW) 2,543 4.9 -19.6°
Sets 12:58:19 0° 341° (NNW) 3,521 5.7 -19.1°
